Year,Month,Day,Hour,Minute,Value (Times are PST for temperature in C)
2009,05,28,00,00,10.20
2009,05,28,00,01,10.10
2009,05,28,00,02,10.10
2009,05,28,00,03,10.10
2009,05,28,00,04,10.10
2009,05,28,00,05,10.10
2009,05,28,00,06,10.00
2009,05,28,00,07,9.90
2009,05,28,00,08,9.90
2009,05,28,00,09,9.90
2009,05,28,00,10,9.90
2009,05,28,00,11,9.80
2009,05,28,00,12,9.80
2009,05,28,00,13,9.80
2009,05,28,00,14,9.70
2009,05,28,00,15,9.70
2009,05,28,00,16,9.70
2009,05,28,00,17,9.70
2009,05,28,00,18,9.70
2009,05,28,00,19,9.70
2009,05,28,00,20,9.70
2009,05,28,00,21,9.70
2009,05,28,00,22,9.60
2009,05,28,00,23,9.60
2009,05,28,00,24,9.60
2009,05,28,00,25,9.60
2009,05,28,00,26,9.60
2009,05,28,00,27,9.50
2009,05,28,00,28,9.50
2009,05,28,00,29,9.50
2009,05,28,00,30,9.50
2009,05,28,00,31,9.50
2009,05,28,00,32,9.40
2009,05,28,00,33,9.40
2009,05,28,00,34,9.40
2009,05,28,00,35,9.40
2009,05,28,00,36,9.40
2009,05,28,00,37,9.40
2009,05,28,00,38,9.30
2009,05,28,00,39,9.30
2009,05,28,00,40,9.30
2009,05,28,00,41,9.30
2009,05,28,00,42,9.30
2009,05,28,00,43,9.30
2009,05,28,00,44,9.20
2009,05,28,00,45,9.20
2009,05,28,00,46,9.20
2009,05,28,00,47,9.20
2009,05,28,00,48,9.20
2009,05,28,00,49,9.20
2009,05,28,00,50,9.20
2009,05,28,00,51,9.20
2009,05,28,00,52,9.20
2009,05,28,00,53,9.20
2009,05,28,00,54,9.20
2009,05,28,00,55,9.20
2009,05,28,00,56,9.20
2009,05,28,00,57,9.20
2009,05,28,00,58,9.20
2009,05,28,00,59,9.20
2009,05,28,01,00,9.20
2009,05,28,01,01,9.20
2009,05,28,01,02,9.10
2009,05,28,01,03,9.10
2009,05,28,01,04,9.10
2009,05,28,01,05,9.00
2009,05,28,01,06,9.00
2009,05,28,01,07,9.00
2009,05,28,01,08,9.00
2009,05,28,01,09,9.00
2009,05,28,01,10,9.00
2009,05,28,01,11,9.00
2009,05,28,01,12,9.00
2009,05,28,01,13,9.00
2009,05,28,01,14,9.00
2009,05,28,01,15,9.00
2009,05,28,01,16,9.00
2009,05,28,01,17,9.00
2009,05,28,01,18,9.00
2009,05,28,01,19,9.00
2009,05,28,01,20,8.90
2009,05,28,01,21,8.90
2009,05,28,01,22,8.90
2009,05,28,01,23,8.90
2009,05,28,01,24,8.80
2009,05,28,01,25,8.80
2009,05,28,01,26,8.80
2009,05,28,01,27,8.70
2009,05,28,01,28,8.70
2009,05,28,01,29,8.70
2009,05,28,01,30,8.70
2009,05,28,01,31,8.70
2009,05,28,01,32,8.70
2009,05,28,01,33,8.70
2009,05,28,01,34,8.70
2009,05,28,01,35,8.70
2009,05,28,01,36,8.70
2009,05,28,01,37,8.70
2009,05,28,01,38,8.70
2009,05,28,01,39,8.70
2009,05,28,01,40,8.70
2009,05,28,01,41,8.70
2009,05,28,01,42,8.70
2009,05,28,01,43,8.60
2009,05,28,01,44,8.60
2009,05,28,01,45,8.60
2009,05,28,01,46,8.50
2009,05,28,01,47,8.40
2009,05,28,01,48,8.40
2009,05,28,01,49,8.30
2009,05,28,01,50,8.30
2009,05,28,01,51,8.30
2009,05,28,01,52,8.20
2009,05,28,01,53,8.20
2009,05,28,01,54,8.20
2009,05,28,01,55,8.20
2009,05,28,01,56,8.20
2009,05,28,01,57,8.10
2009,05,28,01,58,8.10
2009,05,28,01,59,8.10
2009,05,28,02,00,8.10
2009,05,28,02,01,8.10
2009,05,28,02,02,8.00
2009,05,28,02,03,8.00
2009,05,28,02,04,8.00
2009,05,28,02,05,7.90
2009,05,28,02,06,7.90
2009,05,28,02,07,7.90
2009,05,28,02,08,7.90
2009,05,28,02,09,7.90
2009,05,28,02,10,7.90
2009,05,28,02,11,7.90
2009,05,28,02,12,7.90
2009,05,28,02,13,7.90
2009,05,28,02,14,7.90
2009,05,28,02,15,7.90
2009,05,28,02,16,7.90
2009,05,28,02,17,7.90
2009,05,28,02,18,7.90
2009,05,28,02,19,7.90
2009,05,28,02,20,7.90
2009,05,28,02,21,7.90
2009,05,28,02,22,7.80
2009,05,28,02,23,7.80
2009,05,28,02,24,7.80
2009,05,28,02,25,7.80
2009,05,28,02,26,7.80
2009,05,28,02,27,7.80
2009,05,28,02,28,7.80
2009,05,28,02,29,7.80
2009,05,28,02,30,7.80
2009,05,28,02,31,7.80
2009,05,28,02,32,7.80
2009,05,28,02,33,7.80
2009,05,28,02,34,7.80
2009,05,28,02,35,7.80
2009,05,28,02,36,7.80
2009,05,28,02,37,7.80
2009,05,28,02,38,7.80
2009,05,28,02,39,7.80
2009,05,28,02,40,7.80
2009,05,28,02,41,7.70
2009,05,28,02,42,7.70
2009,05,28,02,43,7.70
2009,05,28,02,44,7.70
2009,05,28,02,45,7.70
2009,05,28,02,46,7.70
2009,05,28,02,47,7.70
2009,05,28,02,48,7.70
2009,05,28,02,49,7.60
2009,05,28,02,50,7.60
2009,05,28,02,51,7.70
2009,05,28,02,52,7.70
2009,05,28,02,53,7.70
2009,05,28,02,54,7.70
2009,05,28,02,55,7.70
2009,05,28,02,56,7.70
2009,05,28,02,57,7.70
2009,05,28,02,58,7.70
2009,05,28,02,59,7.70
2009,05,28,03,00,7.80
2009,05,28,03,01,7.80
2009,05,28,03,02,7.80
2009,05,28,03,03,7.80
2009,05,28,03,04,7.80
2009,05,28,03,05,7.80
2009,05,28,03,06,7.80
2009,05,28,03,07,7.80
2009,05,28,03,08,7.80
2009,05,28,03,09,7.80
2009,05,28,03,10,7.80
2009,05,28,03,11,7.80
2009,05,28,03,12,7.80
2009,05,28,03,13,7.80
2009,05,28,03,14,7.80
2009,05,28,03,15,7.70
2009,05,28,03,16,7.70
2009,05,28,03,17,7.70
2009,05,28,03,18,7.70
2009,05,28,03,19,7.60
2009,05,28,03,20,7.60
2009,05,28,03,21,7.60
2009,05,28,03,22,7.60
2009,05,28,03,23,7.60
2009,05,28,03,24,7.50
2009,05,28,03,25,7.50
2009,05,28,03,26,7.50
2009,05,28,03,27,7.50
2009,05,28,03,28,7.50
2009,05,28,03,29,7.50
2009,05,28,03,30,7.40
2009,05,28,03,31,7.40
2009,05,28,03,32,7.40
2009,05,28,03,33,7.40
2009,05,28,03,34,7.30
2009,05,28,03,35,7.30
2009,05,28,03,36,7.30
2009,05,28,03,37,7.30
2009,05,28,03,38,7.30
2009,05,28,03,39,7.30
2009,05,28,03,40,7.30
2009,05,28,03,41,7.30
2009,05,28,03,42,7.20
2009,05,28,03,43,7.20
2009,05,28,03,44,7.20
2009,05,28,03,45,7.20
2009,05,28,03,46,7.20
2009,05,28,03,47,7.20
2009,05,28,03,48,7.20
2009,05,28,03,49,7.30
2009,05,28,03,50,7.30
2009,05,28,03,51,7.30
2009,05,28,03,52,7.30
2009,05,28,03,53,7.30
2009,05,28,03,54,7.30
2009,05,28,03,55,7.30
2009,05,28,03,56,7.30
2009,05,28,03,57,7.30
2009,05,28,03,58,7.30
2009,05,28,03,59,7.30
2009,05,28,04,00,7.30
2009,05,28,04,01,7.30
2009,05,28,04,02,7.30
2009,05,28,04,03,7.30
2009,05,28,04,04,7.30
2009,05,28,04,06,7.30
2009,05,28,04,07,7.30
2009,05,28,04,08,7.30
2009,05,28,04,09,7.30
2009,05,28,04,10,7.30
2009,05,28,04,11,7.30
2009,05,28,04,12,7.30
2009,05,28,04,13,7.20
2009,05,28,04,14,7.20
2009,05,28,04,15,7.20
2009,05,28,04,16,7.10
2009,05,28,04,17,7.10
2009,05,28,04,18,7.10
2009,05,28,04,19,7.10
2009,05,28,04,20,7.00
2009,05,28,04,21,7.00
2009,05,28,04,22,7.00
2009,05,28,04,23,7.00
2009,05,28,04,24,7.00
2009,05,28,04,25,7.00
2009,05,28,04,26,7.00
2009,05,28,04,27,7.00
2009,05,28,04,28,7.00
2009,05,28,04,29,7.00
2009,05,28,04,30,7.00
2009,05,28,04,31,7.00
2009,05,28,04,32,7.00
2009,05,28,04,33,7.00
2009,05,28,04,34,7.00
2009,05,28,04,35,7.00
2009,05,28,04,36,7.00
2009,05,28,04,37,7.00
2009,05,28,04,38,6.90
2009,05,28,04,39,6.90
2009,05,28,04,40,6.90
2009,05,28,04,41,6.90
2009,05,28,04,42,6.90
2009,05,28,04,43,6.80
2009,05,28,04,44,6.80
2009,05,28,04,45,6.80
2009,05,28,04,46,6.80
2009,05,28,04,47,6.80
2009,05,28,04,48,6.80
2009,05,28,04,49,6.80
2009,05,28,04,50,6.80
2009,05,28,04,51,6.80
2009,05,28,04,52,6.80
2009,05,28,04,53,6.80
2009,05,28,04,54,6.80
2009,05,28,04,55,6.80
2009,05,28,04,56,6.90
2009,05,28,04,57,6.90
2009,05,28,04,58,6.90
2009,05,28,04,59,6.90
2009,05,28,05,00,6.90
2009,05,28,05,01,6.90
2009,05,28,05,02,6.90
2009,05,28,05,03,6.90
2009,05,28,05,04,7.00
2009,05,28,05,05,7.00
2009,05,28,05,06,7.00
2009,05,28,05,07,7.00
2009,05,28,05,08,7.00
2009,05,28,05,09,7.00
2009,05,28,05,10,7.10
2009,05,28,05,11,7.10
2009,05,28,05,12,7.10
2009,05,28,05,13,7.10
2009,05,28,05,14,7.10
2009,05,28,05,15,7.00
2009,05,28,05,16,7.00
2009,05,28,05,17,7.00
2009,05,28,05,18,7.00
2009,05,28,05,19,6.90
2009,05,28,05,20,6.90
2009,05,28,05,21,6.90
2009,05,28,05,22,6.80
2009,05,28,05,23,6.80
2009,05,28,05,24,6.80
2009,05,28,05,25,6.80
2009,05,28,05,26,6.80
2009,05,28,05,27,6.80
2009,05,28,05,28,6.80
2009,05,28,05,29,6.80
2009,05,28,05,30,6.70
2009,05,28,05,31,6.70
2009,05,28,05,32,6.70
2009,05,28,05,33,6.70
2009,05,28,05,34,6.60
2009,05,28,05,35,6.60
2009,05,28,05,36,6.60
2009,05,28,05,37,6.60
2009,05,28,05,38,6.60
2009,05,28,05,39,6.60
2009,05,28,05,40,6.50
2009,05,28,05,41,6.40
2009,05,28,05,42,6.40
2009,05,28,05,43,6.40
2009,05,28,05,44,6.40
2009,05,28,05,45,6.40
2009,05,28,05,46,6.40
2009,05,28,05,47,6.40
2009,05,28,05,48,6.40
2009,05,28,05,49,6.40
2009,05,28,05,50,6.40
2009,05,28,05,51,6.40
2009,05,28,05,52,6.40
2009,05,28,05,53,6.60
2009,05,28,05,54,6.60
2009,05,28,05,55,6.60
2009,05,28,05,56,6.60
2009,05,28,05,57,6.60
2009,05,28,05,58,6.60
2009,05,28,05,59,6.60
2009,05,28,06,00,6.60
2009,05,28,06,01,6.60
2009,05,28,06,02,6.70
2009,05,28,06,03,6.70
2009,05,28,06,04,6.70
2009,05,28,06,05,6.70
2009,05,28,06,06,6.80
2009,05,28,06,07,6.80
2009,05,28,06,08,6.80
2009,05,28,06,09,6.80
2009,05,28,06,10,6.80
2009,05,28,06,11,6.80
2009,05,28,06,12,6.80
2009,05,28,06,13,6.80
2009,05,28,06,14,6.90
2009,05,28,06,15,6.90
2009,05,28,06,16,6.90
2009,05,28,06,17,6.90
2009,05,28,06,18,7.00
2009,05,28,06,19,7.00
2009,05,28,06,20,7.10
2009,05,28,06,21,7.10
2009,05,28,06,22,7.20
2009,05,28,06,23,7.30
2009,05,28,06,24,7.30
2009,05,28,06,25,7.40
2009,05,28,06,26,7.50
2009,05,28,06,27,7.60
2009,05,28,06,28,7.70
2009,05,28,06,29,7.80
2009,05,28,06,30,7.90
2009,05,28,06,31,7.90
2009,05,28,06,32,8.00
2009,05,28,06,33,8.10
2009,05,28,06,34,8.20
2009,05,28,06,35,8.20
2009,05,28,06,36,8.20
2009,05,28,06,37,8.20
2009,05,28,06,38,8.20
2009,05,28,06,39,8.20
2009,05,28,06,40,8.20
2009,05,28,06,41,8.30
2009,05,28,06,42,8.30
2009,05,28,06,43,8.40
2009,05,28,06,44,8.50
2009,05,28,06,45,8.60
2009,05,28,06,46,8.70
2009,05,28,06,47,8.90
2009,05,28,06,48,9.00
2009,05,28,06,49,9.10
2009,05,28,06,50,9.30
2009,05,28,06,51,9.40
2009,05,28,06,52,9.50
2009,05,28,06,53,9.50
2009,05,28,06,54,9.60
2009,05,28,06,55,9.70
2009,05,28,06,56,9.80
2009,05,28,06,57,9.90
2009,05,28,06,58,10.00
2009,05,28,06,59,10.10
2009,05,28,07,00,10.20
2009,05,28,07,01,10.30
2009,05,28,07,02,10.40
2009,05,28,07,03,10.50
2009,05,28,07,04,10.70
2009,05,28,07,05,10.80
2009,05,28,07,06,10.90
2009,05,28,07,07,10.90
2009,05,28,07,08,11.00
2009,05,28,07,09,11.10
2009,05,28,07,10,11.10
2009,05,28,07,11,11.20
2009,05,28,07,12,11.20
2009,05,28,07,13,11.20
2009,05,28,07,14,11.30
2009,05,28,07,15,11.40
2009,05,28,07,16,11.40
2009,05,28,07,17,11.40
2009,05,28,07,18,11.40
2009,05,28,07,19,11.40
2009,05,28,07,20,11.40
2009,05,28,07,21,11.40
2009,05,28,07,22,11.40
2009,05,28,07,23,11.40
2009,05,28,07,24,11.40
2009,05,28,07,25,11.40
2009,05,28,07,26,11.60
2009,05,28,07,27,11.60
2009,05,28,07,28,11.70
2009,05,28,07,29,11.80
2009,05,28,07,30,11.80
2009,05,28,07,31,11.90
2009,05,28,07,32,12.00
2009,05,28,07,33,12.20
2009,05,28,07,34,12.30
2009,05,28,07,35,12.40
2009,05,28,07,36,12.50
2009,05,28,07,37,12.50
2009,05,28,07,38,12.60
2009,05,28,07,39,12.60
2009,05,28,07,40,12.60
2009,05,28,07,41,12.60
2009,05,28,07,42,12.60
2009,05,28,07,43,12.60
2009,05,28,07,44,12.50
2009,05,28,07,45,12.60
2009,05,28,07,46,12.60
2009,05,28,07,47,12.70
2009,05,28,07,48,12.70
2009,05,28,07,49,12.80
2009,05,28,07,50,12.80
2009,05,28,07,51,12.90
2009,05,28,07,52,13.00
2009,05,28,07,53,13.10
2009,05,28,07,54,13.20
2009,05,28,07,55,13.20
2009,05,28,07,56,13.30
2009,05,28,07,57,13.20
2009,05,28,07,58,13.20
2009,05,28,07,59,13.20
2009,05,28,08,00,13.20
2009,05,28,08,01,13.20
2009,05,28,08,02,13.20
2009,05,28,08,03,13.20
2009,05,28,08,04,13.20
2009,05,28,08,05,13.20
2009,05,28,08,06,13.10
2009,05,28,08,07,13.10
2009,05,28,08,08,13.10
2009,05,28,08,09,13.20
2009,05,28,08,10,13.20
2009,05,28,08,11,13.20
2009,05,28,08,12,13.20
2009,05,28,08,13,13.30
2009,05,28,08,14,13.30
2009,05,28,08,15,13.30
2009,05,28,08,16,13.30
2009,05,28,08,17,13.40
2009,05,28,08,18,13.40
2009,05,28,08,19,13.50
2009,05,28,08,20,13.60
2009,05,28,08,21,13.70
2009,05,28,08,22,13.70
2009,05,28,08,23,13.80
2009,05,28,08,24,13.90
2009,05,28,08,25,14.00
2009,05,28,08,26,14.00
2009,05,28,08,27,14.00
2009,05,28,08,28,14.10
2009,05,28,08,29,14.10
2009,05,28,08,30,14.20
2009,05,28,08,31,14.20
2009,05,28,08,32,14.30
2009,05,28,08,33,14.30
2009,05,28,08,34,14.40
2009,05,28,08,35,14.50
2009,05,28,08,36,14.50
2009,05,28,08,37,14.70
2009,05,28,08,38,14.70
2009,05,28,08,39,14.80
2009,05,28,08,40,14.80
2009,05,28,08,41,14.80
2009,05,28,08,42,14.80
2009,05,28,08,43,14.80
2009,05,28,08,44,14.90
2009,05,28,08,45,14.90
2009,05,28,08,46,14.90
2009,05,28,08,47,14.90
2009,05,28,08,48,14.90
2009,05,28,08,49,15.00
2009,05,28,08,50,15.00
2009,05,28,08,51,15.10
2009,05,28,08,52,15.10
2009,05,28,08,53,15.20
2009,05,28,08,54,15.20
2009,05,28,08,55,15.10
2009,05,28,08,56,15.00
2009,05,28,08,57,15.00
2009,05,28,08,58,15.00
2009,05,28,08,59,15.00
2009,05,28,09,00,15.10
2009,05,28,09,01,15.10
2009,05,28,09,02,15.10
2009,05,28,09,03,15.10
2009,05,28,09,04,15.10
2009,05,28,09,05,15.10
2009,05,28,09,06,15.20
2009,05,28,09,07,15.20
2009,05,28,09,08,15.20
2009,05,28,09,09,15.30
2009,05,28,09,10,15.30
2009,05,28,09,11,15.30
2009,05,28,09,12,15.30
2009,05,28,09,13,15.30
2009,05,28,09,14,15.30
2009,05,28,09,15,15.40
2009,05,28,09,16,15.40
2009,05,28,09,17,15.50
2009,05,28,09,18,15.50
2009,05,28,09,19,15.60
2009,05,28,09,20,15.70
2009,05,28,09,21,15.80
2009,05,28,09,22,15.80
2009,05,28,09,23,15.80
2009,05,28,09,24,15.80
2009,05,28,09,25,15.80
2009,05,28,09,26,15.80
2009,05,28,09,27,15.90
2009,05,28,09,28,16.00
2009,05,28,09,29,16.10
2009,05,28,09,30,16.20
2009,05,28,09,31,16.30
2009,05,28,09,32,16.40
2009,05,28,09,33,16.40
2009,05,28,09,34,16.50
2009,05,28,09,35,16.60
2009,05,28,09,36,16.70
2009,05,28,09,37,16.70
2009,05,28,09,38,16.60
2009,05,28,09,39,16.60
2009,05,28,09,40,16.60
2009,05,28,09,41,16.40
2009,05,28,09,42,16.30
2009,05,28,09,43,16.30
2009,05,28,09,44,16.30
2009,05,28,09,45,16.30
2009,05,28,09,46,16.30
2009,05,28,09,47,16.20
2009,05,28,09,48,16.20
2009,05,28,09,49,16.20
2009,05,28,09,50,16.20
2009,05,28,09,51,16.10
2009,05,28,09,52,15.90
2009,05,28,09,53,15.80
2009,05,28,09,54,15.90
2009,05,28,09,55,15.90
2009,05,28,09,56,15.90
2009,05,28,09,57,15.90
2009,05,28,09,58,15.80
2009,05,28,09,59,15.80
2009,05,28,10,00,15.80
2009,05,28,10,01,15.60
2009,05,28,10,02,15.60
2009,05,28,10,03,15.60
2009,05,28,10,04,15.50
2009,05,28,10,05,15.50
2009,05,28,10,06,15.50
2009,05,28,10,07,15.50
2009,05,28,10,08,15.50
2009,05,28,10,09,15.50
2009,05,28,10,10,15.60
2009,05,28,10,11,15.70
2009,05,28,10,12,15.80
2009,05,28,10,13,15.80
2009,05,28,10,14,15.90
2009,05,28,10,15,16.00
2009,05,28,10,16,16.10
2009,05,28,10,17,16.00
2009,05,28,10,18,15.90
2009,05,28,10,19,16.10
2009,05,28,10,20,16.00
2009,05,28,10,21,15.90
2009,05,28,10,22,15.90
2009,05,28,10,23,15.90
2009,05,28,10,24,15.90
2009,05,28,10,25,15.90
2009,05,28,10,26,15.90
2009,05,28,10,27,15.90
2009,05,28,10,28,15.90
2009,05,28,10,29,15.90
2009,05,28,10,30,16.00
2009,05,28,10,31,16.00
2009,05,28,10,32,15.90
2009,05,28,10,33,15.90
2009,05,28,10,34,15.80
2009,05,28,10,35,15.80
2009,05,28,10,36,15.70
2009,05,28,10,37,15.70
2009,05,28,10,38,15.80
2009,05,28,10,39,15.80
2009,05,28,10,40,15.90
2009,05,28,10,41,16.10
2009,05,28,10,42,16.10
2009,05,28,10,43,16.10
2009,05,28,10,44,16.20
2009,05,28,10,45,16.20
2009,05,28,10,46,16.10
2009,05,28,10,47,16.10
2009,05,28,10,48,16.10
2009,05,28,10,49,15.90
2009,05,28,10,50,16.00
2009,05,28,10,51,16.10
2009,05,28,10,52,16.20
2009,05,28,10,53,16.20
2009,05,28,10,54,16.30
2009,05,28,10,55,16.40
2009,05,28,10,56,16.40
2009,05,28,10,57,16.50
2009,05,28,10,58,16.60
2009,05,28,10,59,16.60
2009,05,28,11,00,16.60
2009,05,28,11,01,16.60
2009,05,28,11,02,16.50
2009,05,28,11,03,16.40
2009,05,28,11,04,16.40
2009,05,28,11,05,16.40
2009,05,28,11,06,16.50
2009,05,28,11,07,16.50
2009,05,28,11,08,16.40
2009,05,28,11,09,16.40
2009,05,28,11,10,16.30
2009,05,28,11,11,16.20
2009,05,28,11,12,16.20
2009,05,28,11,13,16.20
2009,05,28,11,14,16.30
2009,05,28,11,15,16.30
2009,05,28,11,16,16.40
2009,05,28,11,17,16.60
2009,05,28,11,18,16.70
2009,05,28,11,19,16.80
2009,05,28,11,20,16.80
2009,05,28,11,21,16.80
2009,05,28,11,22,16.80
2009,05,28,11,23,16.80
2009,05,28,11,24,16.70
2009,05,28,11,25,16.70
2009,05,28,11,26,16.70
2009,05,28,11,27,16.70
2009,05,28,11,28,16.70
2009,05,28,11,29,16.60
2009,05,28,11,30,16.50
2009,05,28,11,31,16.50
2009,05,28,11,32,16.60
2009,05,28,11,33,16.70
2009,05,28,11,34,16.70
2009,05,28,11,35,16.70
2009,05,28,11,36,16.70
2009,05,28,11,37,16.80
2009,05,28,11,38,16.90
2009,05,28,11,39,16.90
2009,05,28,11,40,16.90
2009,05,28,11,41,16.90
2009,05,28,11,42,16.90
2009,05,28,11,43,16.90
2009,05,28,11,44,17.00
2009,05,28,11,45,17.00
2009,05,28,11,46,17.00
2009,05,28,11,47,16.90
2009,05,28,11,48,16.90
2009,05,28,11,49,16.80
2009,05,28,11,50,16.80
2009,05,28,11,51,16.70
2009,05,28,11,52,16.70
2009,05,28,11,53,16.70
2009,05,28,11,54,16.70
2009,05,28,11,55,16.70
2009,05,28,11,56,16.70
2009,05,28,11,57,16.70
2009,05,28,11,58,16.70
2009,05,28,11,59,16.70
2009,05,28,12,00,16.80
2009,05,28,12,01,16.90
2009,05,28,12,02,17.00
2009,05,28,12,03,17.10
2009,05,28,12,04,17.10
2009,05,28,12,05,17.10
2009,05,28,12,06,17.20
2009,05,28,12,07,17.20
2009,05,28,12,08,17.10
2009,05,28,12,09,17.00
2009,05,28,12,10,16.90
2009,05,28,12,11,16.90
2009,05,28,12,12,17.00
2009,05,28,12,13,17.20
2009,05,28,12,14,17.30
2009,05,28,12,15,17.40
2009,05,28,12,16,17.40
2009,05,28,12,17,17.50
2009,05,28,12,18,17.50
2009,05,28,12,19,17.50
2009,05,28,12,20,17.50
2009,05,28,12,21,17.40
2009,05,28,12,22,17.40
2009,05,28,12,23,17.30
2009,05,28,12,24,17.30
2009,05,28,12,25,17.30
2009,05,28,12,26,17.40
2009,05,28,12,27,17.50
2009,05,28,12,28,17.60
2009,05,28,12,29,17.80
2009,05,28,12,30,17.90
2009,05,28,12,31,18.00
2009,05,28,12,32,18.10
2009,05,28,12,33,18.10
2009,05,28,12,34,18.10
2009,05,28,12,35,18.20
2009,05,28,12,36,18.10
2009,05,28,12,37,18.10
2009,05,28,12,38,18.10
2009,05,28,12,39,18.20
2009,05,28,12,40,18.40
2009,05,28,12,41,18.50
2009,05,28,12,42,18.40
2009,05,28,12,43,18.20
2009,05,28,12,44,18.20
2009,05,28,12,45,18.30
2009,05,28,12,46,18.30
2009,05,28,12,47,18.40
2009,05,28,12,48,18.40
2009,05,28,12,49,18.30
2009,05,28,12,50,18.20
2009,05,28,12,51,18.20
2009,05,28,12,52,18.30
2009,05,28,12,53,18.20
2009,05,28,12,54,18.20
2009,05,28,12,55,18.30
2009,05,28,12,56,18.50
2009,05,28,12,57,18.60
2009,05,28,12,58,18.60
2009,05,28,12,59,18.60
2009,05,28,13,00,18.60
2009,05,28,13,01,18.50
2009,05,28,13,02,18.40
2009,05,28,13,03,18.40
2009,05,28,13,04,18.40
2009,05,28,13,05,18.40
2009,05,28,13,06,18.40
2009,05,28,13,07,18.50
2009,05,28,13,08,18.50
2009,05,28,13,09,18.50
2009,05,28,13,10,18.50
2009,05,28,13,11,18.50
2009,05,28,13,12,18.50
2009,05,28,13,13,18.40
2009,05,28,13,14,18.40
2009,05,28,13,15,18.50
2009,05,28,13,16,18.50
2009,05,28,13,17,18.60
2009,05,28,13,18,18.50
2009,05,28,13,19,18.50
2009,05,28,13,20,18.50
2009,05,28,13,21,18.60
2009,05,28,13,22,18.60
2009,05,28,13,23,18.50
2009,05,28,13,24,18.40
2009,05,28,13,25,18.30
2009,05,28,13,26,18.30
2009,05,28,13,27,18.30
2009,05,28,13,28,18.30
2009,05,28,13,29,18.40
2009,05,28,13,30,18.30
2009,05,28,13,31,18.20
2009,05,28,13,32,18.20
2009,05,28,13,33,18.20
2009,05,28,13,34,18.20
2009,05,28,13,35,18.20
2009,05,28,13,36,18.30
2009,05,28,13,37,18.30
2009,05,28,13,38,18.30
2009,05,28,13,39,18.20
2009,05,28,13,40,18.20
2009,05,28,13,41,18.10
2009,05,28,13,42,17.90
2009,05,28,13,43,17.90
2009,05,28,13,44,17.90
2009,05,28,13,45,17.90
2009,05,28,13,46,17.90
2009,05,28,13,47,17.90
2009,05,28,13,48,17.90
2009,05,28,13,49,17.80
2009,05,28,13,50,17.80
2009,05,28,13,51,17.80
2009,05,28,13,52,17.90
2009,05,28,13,53,17.80
2009,05,28,13,54,17.70
2009,05,28,13,55,17.70
2009,05,28,13,56,17.70
2009,05,28,13,57,17.70
2009,05,28,13,58,17.70
2009,05,28,13,59,17.80
2009,05,28,14,00,17.80
2009,05,28,14,01,17.90
2009,05,28,14,02,17.90
2009,05,28,14,03,17.90
2009,05,28,14,04,17.90
2009,05,28,14,05,17.90
2009,05,28,14,06,17.90
2009,05,28,14,07,17.80
2009,05,28,14,08,17.90
2009,05,28,14,09,17.90
2009,05,28,14,10,17.90
2009,05,28,14,11,17.90
2009,05,28,14,12,18.10
2009,05,28,14,13,18.10
2009,05,28,14,14,18.10
2009,05,28,14,15,18.20
2009,05,28,14,16,18.20
2009,05,28,14,17,18.20
2009,05,28,14,18,18.30
2009,05,28,14,19,18.40
2009,05,28,14,20,18.50
2009,05,28,14,21,18.60
2009,05,28,14,22,18.60
2009,05,28,14,23,18.80
2009,05,28,14,24,18.90
2009,05,28,14,25,18.90
2009,05,28,14,26,18.90
2009,05,28,14,27,18.80
2009,05,28,14,28,18.60
2009,05,28,14,29,18.60
2009,05,28,14,30,18.50
2009,05,28,14,31,18.60
2009,05,28,14,32,18.60
2009,05,28,14,33,18.70
2009,05,28,14,34,18.70
2009,05,28,14,35,18.80
2009,05,28,14,36,18.90
2009,05,28,14,37,18.90
2009,05,28,14,38,18.90
2009,05,28,14,39,18.80
2009,05,28,14,40,18.80
2009,05,28,14,41,18.80
2009,05,28,14,42,18.80
2009,05,28,14,43,18.80
2009,05,28,14,44,18.80
2009,05,28,14,45,18.80
2009,05,28,14,46,18.80
2009,05,28,14,47,18.90
2009,05,28,14,48,18.90
2009,05,28,14,49,19.10
2009,05,28,14,50,19.10
2009,05,28,14,51,19.20
2009,05,28,14,52,19.20
2009,05,28,14,53,19.20
2009,05,28,14,54,19.20
2009,05,28,14,55,19.20
2009,05,28,14,56,19.10
2009,05,28,14,57,19.10
2009,05,28,14,58,19.10
2009,05,28,14,59,18.90
2009,05,28,15,00,18.90
2009,05,28,15,01,18.90
2009,05,28,15,02,18.90
2009,05,28,15,03,18.70
2009,05,28,15,04,18.70
2009,05,28,15,05,18.70
2009,05,28,15,06,18.70
2009,05,28,15,07,18.80
2009,05,28,15,08,19.00
2009,05,28,15,09,19.20
2009,05,28,15,10,19.30
2009,05,28,15,11,19.40
2009,05,28,15,12,19.40
2009,05,28,15,13,19.40
2009,05,28,15,14,19.40
2009,05,28,15,15,19.40
2009,05,28,15,16,19.50
2009,05,28,15,17,19.50
2009,05,28,15,18,19.50
2009,05,28,15,19,19.50
2009,05,28,15,20,19.50
2009,05,28,15,21,19.50
2009,05,28,15,22,19.50
2009,05,28,15,23,19.40
2009,05,28,15,24,19.40
2009,05,28,15,25,19.40
2009,05,28,15,26,19.40
2009,05,28,15,27,19.50
2009,05,28,15,28,19.60
2009,05,28,15,29,19.70
2009,05,28,15,30,19.80
2009,05,28,15,31,19.80
2009,05,28,15,32,19.80
2009,05,28,15,33,19.80
2009,05,28,15,34,19.90
2009,05,28,15,35,19.90
2009,05,28,15,36,20.10
2009,05,28,15,37,20.20
2009,05,28,15,38,20.20
2009,05,28,15,39,20.10
2009,05,28,15,40,20.10
2009,05,28,15,41,20.10
2009,05,28,15,42,20.00
2009,05,28,15,43,20.10
2009,05,28,15,44,20.20
2009,05,28,15,45,20.20
2009,05,28,15,46,20.20
2009,05,28,15,47,20.10
2009,05,28,15,48,20.10
2009,05,28,15,49,20.10
2009,05,28,15,50,20.10
2009,05,28,15,51,20.20
2009,05,28,15,52,20.30
2009,05,28,15,53,20.40
2009,05,28,15,54,20.40
2009,05,28,15,55,20.50
2009,05,28,15,56,20.40
2009,05,28,15,57,20.20
2009,05,28,15,58,20.30
2009,05,28,15,59,20.30
2009,05,28,16,00,20.20
2009,05,28,16,01,20.20
2009,05,28,16,02,20.20
2009,05,28,16,03,20.10
2009,05,28,16,04,20.10
2009,05,28,16,05,20.10
2009,05,28,16,06,20.20
2009,05,28,16,07,20.20
2009,05,28,16,08,20.20
2009,05,28,16,09,20.30
2009,05,28,16,10,20.50
2009,05,28,16,11,20.60
2009,05,28,16,12,20.70
2009,05,28,16,13,20.80
2009,05,28,16,14,20.90
2009,05,28,16,15,21.00
2009,05,28,16,16,21.10
2009,05,28,16,17,21.00
2009,05,28,16,18,21.00
2009,05,28,16,19,21.00
2009,05,28,16,20,21.00
2009,05,28,16,21,21.10
2009,05,28,16,22,21.10
2009,05,28,16,23,21.10
2009,05,28,16,24,21.10
2009,05,28,16,25,21.10
2009,05,28,16,26,21.10
2009,05,28,16,27,21.10
2009,05,28,16,28,21.10
2009,05,28,16,29,21.20
2009,05,28,16,30,21.20
2009,05,28,16,31,21.30
2009,05,28,16,32,21.20
2009,05,28,16,33,21.20
2009,05,28,16,34,21.20
2009,05,28,16,35,21.20
2009,05,28,16,36,21.10
2009,05,28,16,37,21.10
2009,05,28,16,38,21.20
2009,05,28,16,39,21.20
2009,05,28,16,40,21.20
2009,05,28,16,41,21.10
2009,05,28,16,42,21.00
2009,05,28,16,43,21.00
2009,05,28,16,44,21.00
2009,05,28,16,45,20.90
2009,05,28,16,46,20.90
2009,05,28,16,47,20.90
2009,05,28,16,48,20.90
2009,05,28,16,49,21.00
2009,05,28,16,50,21.00
2009,05,28,16,51,21.00
2009,05,28,16,52,21.00
2009,05,28,16,53,20.90
2009,05,28,16,54,20.90
2009,05,28,16,55,21.00
2009,05,28,16,56,21.00
2009,05,28,16,57,21.00
2009,05,28,16,58,20.90
2009,05,28,16,59,20.80
2009,05,28,17,00,20.80
2009,05,28,17,01,20.80
2009,05,28,17,02,20.90
2009,05,28,17,03,21.00
2009,05,28,17,04,21.00
2009,05,28,17,05,21.00
2009,05,28,17,06,21.10
2009,05,28,17,07,21.20
2009,05,28,17,08,21.30
2009,05,28,17,09,21.40
2009,05,28,17,10,21.40
2009,05,28,17,11,21.50
2009,05,28,17,12,21.50
2009,05,28,17,13,21.40
2009,05,28,17,14,21.30
2009,05,28,17,15,21.30
2009,05,28,17,16,21.20
2009,05,28,17,17,21.20
2009,05,28,17,18,21.10
2009,05,28,17,19,21.10
2009,05,28,17,20,21.10
2009,05,28,17,21,21.20
2009,05,28,17,22,21.20
2009,05,28,17,23,21.30
2009,05,28,17,24,21.30
2009,05,28,17,25,21.30
2009,05,28,17,26,21.30
2009,05,28,17,27,21.40
2009,05,28,17,28,21.50
2009,05,28,17,29,21.60
2009,05,28,17,30,21.70
2009,05,28,17,31,21.70
2009,05,28,17,32,21.70
2009,05,28,17,33,21.80
2009,05,28,17,34,21.80
2009,05,28,17,35,21.70
2009,05,28,17,36,21.80
2009,05,28,17,37,21.80
2009,05,28,17,38,21.80